| time (UTC) | temp F | wind direction | speed MPH | gust MPH | rain 1hr in | rain 24hr in | rain mn in | humidity % | barometer mb |
| 20260902223005 | 73 | 22 | 1.0 | 2.0 | 0.00 | 0.03 | 0.03 | 92 | 4098.0 |
| 20260902222504 | 73 | 8 | 1.0 | 1.0 | 0.00 | 0.03 | 0.03 | 91 | 4098.0 |
| 20260902221958 | 73 | 315 | 1.0 | 1.0 | 0.00 | 0.03 | 0.03 | 90 | 4098.0 |
| 20260902221457 | 74 | 318 | 0.0 | 1.0 | 0.00 | 0.03 | 0.03 | 89 | 4098.0 |
| 20260902220954 | 74 | 319 | 0.0 | 0.0 | 0.00 | 0.03 | 0.03 | 89 | 4098.0 |
| 20260902220453 | 74 | 321 | 0.0 | 0.0 | 0.00 | 0.03 | 0.03 | 89 | 4098.3 |
| 20260902215947 | 74 | 73 | 1.0 | 1.0 | 0.00 | 0.03 | 0.03 | 89 | 4098.3 |
| 20260902215438 | 75 | 75 | 0.0 | 0.0 | 0.00 | 0.03 | 0.03 | 90 | 4098.0 |
| 20260902214934 | 75 | 241 | 0.0 | 0.0 | 0.00 | 0.03 | 0.03 | 88 | 4098.3 |
| 20260902214432 | 75 | 149 | 0.0 | 1.0 | 0.00 | 0.03 | 0.03 | 89 | 4098.3 |
| 20260902213933 | 76 | 194 | 0.0 | 0.0 | 0.00 | 0.03 | 0.03 | 88 | 4098.3 |
| 20260902213429 | 75 | 14 | 0.0 | 0.0 | 0.00 | 0.03 | 0.03 | 89 | 4098.3 |
| 20260902212928 | 76 | 303 | 0.0 | 0.0 | 0.00 | 0.03 | 0.03 | 87 | 4098.3 |
| 20260902212424 | 76 | 308 | 0.0 | 0.0 | 0.00 | 0.03 | 0.03 | 88 | 4098.7 |
| 20260902211920 | 75 | 308 | 0.0 | 1.0 | 0.00 | 0.03 | 0.03 | 88 | 4098.3 |
| 20260902211415 | 76 | 300 | 0.0 | 0.0 | 0.00 | 0.03 | 0.03 | 88 | 4098.7 |
| 20260902210905 | 77 | 301 | 0.0 | 0.0 | 0.00 | 0.03 | 0.03 | 88 | 4098.7 |
| 20260902210405 | 77 | 192 | 0.0 | 0.0 | 0.00 | 0.03 | 0.03 | 86 | 4098.7 |
| 20260902205903 | 76 | 148 | 0.0 | 1.0 | 0.00 | 0.03 | 0.03 | 88 | 4098.7 |
| 20260902205357 | 76 | 32 | 1.0 | 1.0 | 0.00 | 0.03 | 0.03 | 89 | 4098.7 |
| 20260902204854 | 76 | 54 | 0.0 | 1.0 | 0.00 | 0.03 | 0.03 | 87 | 4098.7 |
| 20260902204353 | 76 | 334 | 2.0 | 3.0 | 0.00 | 0.03 | 0.03 | 87 | 4098.7 |
| 20260902203849 | 76 | 343 | 1.0 | 2.0 | 0.00 | 0.03 | 0.03 | 87 | 4098.7 |
| 20260902203344 | 76 | 47 | 1.0 | 2.0 | 0.00 | 0.03 | 0.03 | 89 | 4098.3 |
| 20260902202838 | 77 | 94 | 1.0 | 1.0 | 0.00 | 0.03 | 0.03 | 87 | 4098.7 |
| 20260902202334 | 76 | 33 | 2.0 | 2.0 | 0.00 | 0.03 | 0.03 | 87 | 4098.7 |
| 20260902201830 | 76 | 342 | 1.0 | 1.0 | 0.00 | 0.03 | 0.03 | 88 | 4098.7 |
| 20260902201325 | 76 | 45 | 1.0 | 1.0 | 0.00 | 0.03 | 0.03 | 90 | 4098.7 |
| 20260902200820 | 76 | 32 | 2.0 | 2.0 | 0.00 | 0.03 | 0.03 | 89 | 4098.7 |
| 20260902200315 | 76 | 87 | 0.0 | 1.0 | 0.00 | 0.03 | 0.03 | 89 | 4099.0 |
| 20260902195810 | 76 | 64 | 2.0 | 3.0 | 0.00 | 0.03 | 0.03 | 89 | 4099.0 |
| 20260902195309 | 76 | 161 | 0.0 | 1.0 | 0.00 | 0.03 | 0.03 | 89 | 4098.7 |
| 20260902194804 | 76 | 82 | 2.0 | 2.0 | 0.00 | 0.03 | 0.03 | 90 | 4099.0 |
| 20260902194259 | 76 | 105 | 1.0 | 2.0 | 0.00 | 0.03 | 0.03 | 91 | 4099.0 |
| 20260902193754 | 76 | 86 | 0.0 | 0.0 | 0.00 | 0.03 | 0.03 | 91 | 4099.0 |
| 20260902193250 | 76 | 98 | 2.0 | 2.0 | 0.00 | 0.03 | 0.03 | 91 | 4099.4 |
| 20260902192749 | 75 | 69 | 1.0 | 2.0 | 0.00 | 0.03 | 0.03 | 91 | 4099.4 |
| 20260902192248 | 75 | 247 | 1.0 | 2.0 | 0.00 | 0.03 | 0.03 | 91 | 4099.4 |
| 20260902191747 | 75 | 183 | 1.0 | 1.0 | 0.00 | 0.03 | 0.03 | 92 | 4099.4 |
| 20260902191243 | 75 | 53 | 0.0 | 0.0 | 0.00 | 0.03 | 0.03 | 93 | 4099.4 |
| 20260902190738 | 75 | 355 | 2.0 | 3.0 | 0.00 | 0.03 | 0.03 | 91 | 4099.4 |
| 20260902190237 | 76 | 117 | 2.0 | 2.0 | 0.00 | 0.03 | 0.03 | 91 | 4099.4 |
| 20260902185733 | 76 | 171 | 1.0 | 1.0 | 0.00 | 0.03 | 0.03 | 89 | 4099.4 |
| 20260902185229 | 76 | 174 | 1.0 | 1.0 | 0.00 | 0.03 | 0.03 | 91 | 4099.0 |
| 20260902184725 | 77 | 183 | 0.0 | 1.0 | 0.00 | 0.03 | 0.03 | 89 | 4099.4 |
| 20260902184220 | 76 | 211 | 0.0 | 0.0 | 0.00 | 0.03 | 0.03 | 91 | 4099.4 |
| 20260902183716 | 75 | 101 | 0.0 | 1.0 | 0.00 | 0.03 | 0.03 | 92 | 4099.0 |
| 20260902183212 | 75 | 65 | 1.0 | 2.0 | 0.00 | 0.03 | 0.03 | 93 | 4099.0 |
| 20260902182708 | 75 | 94 | 2.0 | 2.0 | 0.00 | 0.03 | 0.03 | 93 | 4099.4 |
| 20260902182205 | 75 | 200 | 1.0 | 2.0 | 0.00 | 0.03 | 0.03 | 93 | 4099.4 |
| 20260902181700 | 75 | 85 | 1.0 | 2.0 | 0.00 | 0.03 | 0.03 | 93 | 4099.4 |
| 20260902181159 | 75 | 172 | 1.0 | 1.0 | 0.00 | 0.03 | 0.03 | 92 | 4099.4 |
| 20260902180654 | 75 | 200 | 0.0 | 1.0 | 0.00 | 0.03 | 0.03 | 93 | 4099.0 |
| 20260902180150 | 75 | 53 | 2.0 | 3.0 | 0.00 | 0.03 | 0.03 | 91 | 4099.0 |
| 20260902175649 | 75 | 67 | 1.0 | 1.0 | 0.00 | 0.03 | 0.03 | 91 | 4098.7 |
| 20260902175146 | 75 | 31 | 2.0 | 2.0 | 0.00 | 0.03 | 0.03 | 92 | 4098.7 |
| 20260902174641 | 75 | 73 | 0.0 | 1.0 | 0.00 | 0.03 | 0.03 | 90 | 4099.0 |
| 20260902174137 | 75 | 88 | 0.0 | 1.0 | 0.00 | 0.03 | 0.03 | 90 | 4098.7 |
| 20260902173632 | 76 | 106 | 1.0 | 2.0 | 0.00 | 0.03 | 0.03 | 89 | 4099.0 |
| 20260902173127 | 76 | 93 | 1.0 | 2.0 | 0.00 | 0.03 | 0.03 | 89 | 4099.0 |
| 20260902172621 | 75 | 140 | 0.0 | 1.0 | 0.00 | 0.03 | 0.03 | 92 | 4099.0 |
| 20260902172115 | 75 | 199 | 1.0 | 2.0 | 0.00 | 0.03 | 0.03 | 93 | 4099.0 |
| 20260902171611 | 75 | 198 | 3.0 | 3.0 | 0.00 | 0.03 | 0.03 | 94 | 4099.0 |
| 20260902171107 | 75 | 87 | 1.0 | 1.0 | 0.00 | 0.03 | 0.03 | 89 | 4099.0 |
| 20260902170602 | 75 | 150 | 1.0 | 1.0 | 0.00 | 0.03 | 0.03 | 89 | 4098.7 |
| 20260902170058 | 75 | 161 | 1.0 | 1.0 | 0.00 | 0.03 | 0.03 | 91 | 4099.0 |
| 20260902165557 | 75 | 174 | 0.0 | 1.0 | 0.00 | 0.03 | 0.03 | 91 | 4098.7 |
| 20260902165051 | 74 | 195 | 0.0 | 2.0 | 0.00 | 0.03 | 0.03 | 93 | 4098.7 |
| 20260902164547 | 73 | 95 | 0.0 | 0.0 | 0.00 | 0.03 | 0.03 | 96 | 4098.7 |
| 20260902164045 | 72 | 96 | 0.0 | 0.0 | 0.00 | 0.03 | 0.03 | 96 | 4098.7 |
| 20260902163541 | 72 | 96 | 0.0 | 0.0 | 0.00 | 0.03 | 0.03 | 96 | 4098.7 |
| 20260902163039 | 72 | 96 | 0.0 | 0.0 | 0.00 | 0.03 | 0.03 | 96 | 4098.7 |
| 20260902162534 | 73 | 96 | 0.0 | 0.0 | 0.00 | 0.03 | 0.03 | 96 | 4099.0 |
| 20260902162029 | 73 | 92 | 0.0 | 1.0 | 0.00 | 0.03 | 0.03 | 97 | 4099.0 |
| 20260902161524 | 73 | 164 | 0.0 | 0.0 | 0.00 | 0.03 | 0.03 | 95 | 4098.7 |
| 20260902161019 | 73 | 194 | 0.0 | 1.0 | 0.00 | 0.03 | 0.03 | 97 | 4098.7 |
| 20260902160515 | 73 | 177 | 1.0 | 1.0 | 0.00 | 0.03 | 0.03 | 97 | 4099.0 |
| 20260902160015 | 73 | 173 | 0.0 | 1.0 | 0.00 | 0.03 | 0.03 | 97 | 4099.0 |
| 20260902155509 | 72 | 183 | 2.0 | 2.0 | 0.00 | 0.03 | 0.03 | 99 | 4099.0 |
| 20260902155008 | 70 | 156 | 0.0 | 0.0 | 0.00 | 0.03 | 0.03 | 99 | 4099.0 |
| 20260902154503 | 69 | 166 | 0.0 | 0.0 | 0.00 | 0.03 | 0.03 | 99 | 4099.0 |
| 20260902153958 | 68 | 185 | 0.0 | 0.0 | 0.00 | 0.03 | 0.03 | 99 | 4099.0 |
| 20260902153455 | 68 | 222 | 4.0 | 5.0 | 0.00 | 0.03 | 0.03 | 99 | 4099.0 |
| 20260902152946 | 68 | 233 | 7.0 | 8.0 | 0.00 | 0.03 | 0.03 | 99 | 4099.0 |
| 20260902152442 | 68 | 209 | 2.0 | 3.0 | 0.00 | 0.03 | 0.03 | 99 | 4099.0 |
| 20260902151937 | 67 | 218 | 4.0 | 5.0 | 0.00 | 0.03 | 0.03 | 99 | 4099.4 |
| 20260902151434 | 68 | 181 | 0.0 | 0.0 | 0.00 | 0.03 | 0.03 | 99 | 4099.4 |
| 20260902150932 | 68 | 216 | 3.0 | 5.0 | 0.00 | 0.03 | 0.03 | 99 | 4099.4 |
| 20260902150429 | 68 | 220 | 3.0 | 6.0 | 0.00 | 0.03 | 0.03 | 99 | 4099.4 |
| 20260902145928 | 67 | 231 | 5.0 | 8.0 | 0.00 | 0.03 | 0.03 | 99 | 4099.4 |
| 20260902145424 | 67 | 245 | 10.0 | 10.0 | 0.00 | 0.03 | 0.03 | 99 | 4099.0 |
| 20260902144919 | 68 | 212 | 7.0 | 8.0 | 0.00 | 0.03 | 0.03 | 99 | 4098.7 |
| 20260902144415 | 68 | 212 | 5.0 | 6.0 | 0.00 | 0.03 | 0.03 | 99 | 4098.3 |
| 20260902143914 | 67 | 182 | 1.0 | 1.0 | 0.00 | 0.03 | 0.03 | 99 | 4097.7 |
| 20260902143410 | 67 | 178 | 1.0 | 1.0 | 0.00 | 0.03 | 0.03 | 99 | 4097.7 |
| 20260902142905 | 67 | 171 | 0.0 | 0.0 | 0.00 | 0.03 | 0.03 | 99 | 4097.7 |
| 20260902142401 | 67 | 168 | 0.0 | 0.0 | 0.00 | 0.03 | 0.03 | 99 | 4097.3 |
| 20260902141856 | 67 | 163 | 0.0 | 0.0 | 0.00 | 0.03 | 0.03 | 99 | 4097.0 |
| 20260902141352 | 67 | 148 | 0.0 | 0.0 | 0.00 | 0.03 | 0.03 | 99 | 4097.0 |
| 20260902140850 | 67 | 152 | 0.0 | 0.0 | 0.00 | 0.03 | 0.03 | 99 | 4096.5 |
| 20260902140346 | 66 | 140 | 0.0 | 0.0 | 0.00 | 0.03 | 0.03 | 99 | 4097.3 |
| 20260902135840 | 66 | 161 | 0.0 | 0.0 | 0.03 | 0.03 | 0.03 | 99 | 4097.7 |
| 20260902135336 | 66 | 127 | 1.0 | 1.0 | 0.02 | 0.02 | 0.02 | 99 | 4097.7 |
| 20260902134835 | 66 | 168 | 0.0 | 0.0 | 0.02 | 0.02 | 0.02 | 99 | 4099.0 |
| 20260902134330 | 66 | 211 | 4.0 | 5.0 | 0.01 | 0.01 | 0.01 | 99 | 4099.7 |
| 20260902133826 | 66 | 179 | 0.0 | 0.0 | 0.01 | 0.01 | 0.01 | 99 | 4100.4 |
| 20260902133325 | 67 | 153 | 0.0 | 0.0 | 0.00 | 0.00 | 0.00 | 99 | 4100.0 |
| 20260902132821 | 67 | 193 | 1.0 | 2.0 | 0.00 | 0.00 | 0.00 | 99 | 4100.4 |
| 20260902132316 | 67 | 151 | 0.0 | 0.0 | 0.00 | 0.00 | 0.00 | 99 | 4100.4 |
| 20260902131811 | 67 | 149 | 0.0 | 0.0 | 0.00 | 0.00 | 0.00 | 99 | 4100.4 |
| 20260902131308 | 67 | 151 | 0.0 | 0.0 | 0.00 | 0.00 | 0.00 | 99 | 4100.4 |
| 20260902130807 | 68 | 141 | 0.0 | 0.0 | 0.00 | 0.00 | 0.00 | 99 | 4100.4 |
| 20260902130303 | 67 | 166 | 0.0 | 0.0 | 0.00 | 0.00 | 0.00 | 99 | 4100.4 |
| 20260902125758 | 67 | 144 | 0.0 | 0.0 | 0.00 | 0.00 | 0.00 | 99 | 4100.4 |
| 20260902125254 | 67 | 142 | 0.0 | 0.0 | 0.00 | 0.00 | 0.00 | 99 | 4100.4 |
| 20260902124750 | 67 | 149 | 0.0 | 0.0 | 0.00 | 0.00 | 0.00 | 99 | 4100.0 |
| 20260902124246 | 67 | 145 | 0.0 | 0.0 | 0.00 | 0.00 | 0.00 | 99 | 4100.0 |
| 20260902123741 | 67 | 160 | 0.0 | 0.0 | 0.00 | 0.00 | 0.00 | 99 | 4100.0 |
| 20260902123237 | 67 | 176 | 0.0 | 0.0 | 0.00 | 0.00 | 0.00 | 99 | 4100.0 |
| 20260902122735 | 67 | 168 | 0.0 | 0.0 | 0.00 | 0.00 | 0.00 | 99 | 4099.7 |
| 20260902122231 | 67 | 149 | 0.0 | 0.0 | 0.00 | 0.00 | 0.00 | 99 | 4099.4 |
| 20260902121726 | 68 | 155 | 0.0 | 0.0 | 0.00 | 0.00 | 0.00 | 99 | 4099.0 |
| 20260902121221 | 68 | 158 | 0.0 | 0.0 | 0.00 | 0.00 | 0.00 | 99 | 4099.0 |
| 20260902120716 | 68 | 174 | 0.0 | 0.0 | 0.00 | 0.00 | 0.00 | 99 | 4098.7 |
| 20260902120213 | 68 | 174 | 0.0 | 0.0 | 0.00 | 0.00 | 0.00 | 99 | 4099.0 |
| 20260902115712 | 67 | 174 | 0.0 | 0.0 | 0.00 | 0.00 | 0.00 | 99 | 4098.7 |
| 20260902115209 | 67 | 175 | 0.0 | 0.0 | 0.00 | 0.00 | 0.00 | 99 | 4098.3 |
| 20260902114705 | 68 | 175 | 0.0 | 0.0 | 0.00 | 0.00 | 0.00 | 99 | 4098.3 |
| 20260902114200 | 68 | 175 | 0.0 | 0.0 | 0.00 | 0.00 | 0.00 | 99 | 4098.7 |
| 20260902113655 | 68 | 176 | 0.0 | 0.0 | 0.00 | 0.00 | 0.00 | 99 | 4098.3 |
| 20260902113150 | 68 | 173 | 0.0 | 0.0 | 0.00 | 0.00 | 0.00 | 99 | 4098.0 |
| 20260902112650 | 68 | 173 | 0.0 | 0.0 | 0.00 | 0.00 | 0.00 | 99 | 4098.0 |
| 20260902112147 | 68 | 173 | 0.0 | 0.0 | 0.00 | 0.00 | 0.00 | 99 | 4098.3 |
| 20260902111642 | 68 | 176 | 0.0 | 0.0 | 0.00 | 0.00 | 0.00 | 99 | 4098.3 |
| 20260902111138 | 68 | 174 | 0.0 | 0.0 | 0.00 | 0.00 | 0.00 | 99 | 4098.0 |
| 20260902110633 | 68 | 193 | 0.0 | 0.0 | 0.00 | 0.00 | 0.00 | 99 | 4098.3 |
| 20260902110130 | 68 | 173 | 0.0 | 0.0 | 0.00 | 0.00 | 0.00 | 99 | 4098.0 |
| 20260902105629 | 68 | 171 | 0.0 | 0.0 | 0.00 | 0.00 | 0.00 | 99 | 4098.3 |
| 20260902105124 | 68 | 182 | 0.0 | 0.0 | 0.00 | 0.00 | 0.00 | 99 | 4098.3 |
| 20260902104619 | 68 | 156 | 0.0 | 0.0 | 0.00 | 0.00 | 0.00 | 99 | 4098.0 |
| 20260902104114 | 68 | 157 | 0.0 | 0.0 | 0.00 | 0.00 | 0.00 | 99 | 4098.0 |
| 20260902103614 | 68 | 158 | 0.0 | 0.0 | 0.00 | 0.00 | 0.00 | 99 | 4098.0 |
| 20260902103110 | 68 | 176 | 0.0 | 0.0 | 0.00 | 0.00 | 0.00 | 99 | 4098.0 |
| 20260902102606 | 67 | 144 | 0.0 | 0.0 | 0.00 | 0.00 | 0.00 | 99 | 4098.3 |
| 20260902102102 | 67 | 144 | 0.0 | 0.0 | 0.00 | 0.00 | 0.00 | 99 | 4098.3 |
| 20260902101558 | 67 | 144 | 0.0 | 0.0 | 0.00 | 0.00 | 0.00 | 99 | 4098.0 |
| 20260902101057 | 67 | 144 | 0.0 | 0.0 | 0.00 | 0.00 | 0.00 | 99 | 4098.0 |
| 20260902100551 | 67 | 144 | 0.0 | 0.0 | 0.00 | 0.00 | 0.00 | 99 | 4098.0 |
| 20260902100046 | 67 | 144 | 0.0 | 0.0 | 0.00 | 0.00 | 0.00 | 99 | 4098.0 |
| 20260902095546 | 68 | 145 | 0.0 | 0.0 | 0.00 | 0.00 | 0.00 | 99 | 4098.0 |
| 20260902095045 | 68 | 145 | 0.0 | 0.0 | 0.00 | 0.00 | 0.00 | 99 | 4098.0 |
| 20260902094541 | 67 | 145 | 0.0 | 0.0 | 0.00 | 0.00 | 0.00 | 99 | 4097.7 |
| 20260902094036 | 68 | 150 | 0.0 | 0.0 | 0.00 | 0.00 | 0.00 | 99 | 4098.3 |
| 20260902093530 | 68 | 169 | 0.0 | 0.0 | 0.00 | 0.00 | 0.00 | 99 | 4098.0 |
| 20260902093025 | 68 | 169 | 0.0 | 0.0 | 0.00 | 0.00 | 0.00 | 99 | 4098.0 |
| 20260902092520 | 68 | 169 | 0.0 | 0.0 | 0.00 | 0.00 | 0.00 | 99 | 4098.0 |
| 20260902092015 | 68 | 169 | 0.0 | 0.0 | 0.00 | 0.00 | 0.00 | 99 | 4098.0 |
| 20260902091510 | 68 | 151 | 0.0 | 0.0 | 0.00 | 0.00 | 0.00 | 99 | 4097.7 |
| 20260902091006 | 68 | 158 | 0.0 | 0.0 | 0.00 | 0.00 | 0.00 | 99 | 4097.7 |
| 20260902090502 | 68 | 148 | 0.0 | 0.0 | 0.00 | 0.00 | 0.00 | 99 | 4097.7 |
| 20260902090000 | 68 | 149 | 0.0 | 0.0 | 0.00 | 0.00 | 0.00 | 99 | 4097.7 |
| 20260902085455 | 68 | 167 | 0.0 | 0.0 | 0.00 | 0.00 | 0.00 | 99 | 4097.7 |
| 20260902084951 | 68 | 138 | 0.0 | 0.0 | 0.00 | 0.00 | 0.00 | 99 | 4097.7 |
| 20260902084448 | 69 | 138 | 0.0 | 0.0 | 0.00 | 0.00 | 0.00 | 99 | 4097.7 |
| 20260902083943 | 69 | 139 | 0.0 | 0.0 | 0.00 | 0.00 | 0.00 | 99 | 4097.7 |
| 20260902083442 | 69 | 139 | 0.0 | 0.0 | 0.00 | 0.00 | 0.00 | 99 | 4098.0 |
| 20260902082937 | 69 | 139 | 0.0 | 0.0 | 0.00 | 0.00 | 0.00 | 99 | 4097.7 |
| 20260902082433 | 69 | 139 | 0.0 | 0.0 | 0.00 | 0.00 | 0.00 | 99 | 4098.0 |
| 20260902081929 | 69 | 139 | 0.0 | 0.0 | 0.00 | 0.00 | 0.00 | 99 | 4097.7 |
| 20260902081426 | 69 | 139 | 0.0 | 0.0 | 0.00 | 0.00 | 0.00 | 99 | 4097.7 |
| 20260902080920 | 69 | 141 | 0.0 | 0.0 | 0.00 | 0.00 | 0.00 | 99 | 4097.7 |
| 20260902080416 | 69 | 150 | 0.0 | 0.0 | 0.00 | 0.00 | 0.00 | 99 | 4097.7 |
| 20260902075916 | 69 | 151 | 0.0 | 0.0 | 0.00 | 0.00 | 0.00 | 99 | 4097.7 |
| 20260902075412 | 69 | 150 | 0.0 | 0.0 | 0.00 | 0.00 | 0.00 | 99 | 4097.7 |
| 20260902074907 | 69 | 151 | 0.0 | 0.0 | 0.00 | 0.00 | 0.00 | 99 | 4097.7 |
| 20260902074403 | 69 | 143 | 0.0 | 0.0 | 0.00 | 0.00 | 0.00 | 99 | 4097.7 |
| 20260902073857 | 69 | 143 | 0.0 | 0.0 | 0.00 | 0.00 | 0.00 | 99 | 4097.7 |
| 20260902073354 | 69 | 143 | 0.0 | 0.0 | 0.00 | 0.00 | 0.00 | 99 | 4097.7 |
| 20260902072850 | 69 | 143 | 0.0 | 0.0 | 0.00 | 0.00 | 0.00 | 99 | 4097.7 |
| 20260902072345 | 69 | 142 | 0.0 | 0.0 | 0.00 | 0.00 | 0.00 | 99 | 4098.0 |
| 20260902071842 | 68 | 156 | 0.0 | 0.0 | 0.00 | 0.00 | 0.00 | 99 | 4097.7 |
| 20260902071341 | 68 | 156 | 0.0 | 0.0 | 0.00 | 0.00 | 0.00 | 99 | 4097.3 |
| 20260902070837 | 68 | 161 | 0.0 | 0.0 | 0.00 | 0.00 | 0.00 | 99 | 4097.3 |
| 20260902070332 | 68 | 161 | 0.0 | 0.0 | 0.00 | 0.00 | 0.00 | 99 | 4097.7 |
| 20260902065831 | 68 | 161 | 0.0 | 0.0 | 0.00 | 0.00 | 0.00 | 99 | 4097.7 |
| 20260902065326 | 68 | 162 | 0.0 | 0.0 | 0.00 | 0.00 | 0.00 | 99 | 4097.3 |
| 20260902064821 | 68 | 155 | 1.0 | 2.0 | 0.00 | 0.00 | 0.00 | 99 | 4097.3 |
| 20260902064318 | 68 | 166 | 0.0 | 0.0 | 0.00 | 0.00 | 0.00 | 99 | 4097.7 |
| 20260902063813 | 68 | 166 | 0.0 | 0.0 | 0.00 | 0.00 | 0.00 | 99 | 4097.7 |
| 20260902063313 | 68 | 166 | 0.0 | 0.0 | 0.00 | 0.00 | 0.00 | 99 | 4097.3 |
| 20260902062807 | 68 | 164 | 1.0 | 1.0 | 0.00 | 0.00 | 0.00 | 99 | 4097.3 |
| 20260902062305 | 68 | 128 | 0.0 | 0.0 | 0.00 | 0.00 | 0.00 | 99 | 4097.3 |
| 20260902061801 | 68 | 127 | 0.0 | 0.0 | 0.00 | 0.00 | 0.00 | 99 | 4097.0 |
| 20260902061256 | 68 | 127 | 0.0 | 0.0 | 0.00 | 0.00 | 0.00 | 99 | 4097.3 |
| 20260902060754 | 68 | 127 | 0.0 | 0.0 | 0.00 | 0.00 | 0.00 | 99 | 4097.3 |
| 20260902060249 | 67 | 127 | 0.0 | 0.0 | 0.00 | 0.00 | 0.00 | 99 | 4097.3 |
| 20260902055744 | 67 | 127 | 0.0 | 0.0 | 0.00 | 0.00 | 0.00 | 99 | 4097.3 |
| 20260902055240 | 67 | 127 | 0.0 | 0.0 | 0.00 | 0.00 | 0.00 | 99 | 4097.7 |
| 20260902054735 | 67 | 127 | 0.0 | 0.0 | 0.00 | 0.00 | 0.00 | 99 | 4097.7 |
| 20260902054231 | 67 | 127 | 0.0 | 0.0 | 0.00 | 0.00 | 0.00 | 99 | 4097.7 |
| 20260902053726 | 67 | 127 | 0.0 | 0.0 | 0.00 | 0.00 | 0.00 | 99 | 4097.7 |
| 20260902053226 | 67 | 127 | 0.0 | 0.0 | 0.00 | 0.00 | 0.00 | 99 | 4097.7 |
| 20260902052725 | 66 | 127 | 0.0 | 0.0 | 0.00 | 0.00 | 0.00 | 99 | 4097.7 |
| 20260902052221 | 66 | 127 | 0.0 | 0.0 | 0.00 | 0.00 | 0.00 | 99 | 4097.7 |
| 20260902051720 | 66 | 127 | 0.0 | 0.0 | 0.00 | 0.00 | 0.00 | 99 | 4097.7 |
| 20260902051215 | 66 | 126 | 1.0 | 1.0 | 0.00 | 0.00 | 0.00 | 99 | 4097.3 |
| 20260902050709 | 66 | 120 | 1.0 | 1.0 | 0.00 | 0.00 | 0.00 | 99 | 4097.3 |
| 20260902050204 | 66 | 128 | 0.0 | 0.0 | 0.00 | 0.00 | 0.00 | 99 | 4097.7 |
| 20260902045659 | 66 | 120 | 0.0 | 0.0 | 0.00 | 0.00 | 0.00 | 99 | 4097.3 |
| 20260902045155 | 66 | 123 | 0.0 | 0.0 | 0.00 | 0.00 | 0.00 | 99 | 4097.3 |
| 20260902044650 | 66 | 123 | 0.0 | 0.0 | 0.00 | 0.00 | 0.00 | 99 | 4097.3 |
| 20260902044146 | 66 | 123 | 0.0 | 1.0 | 0.00 | 0.00 | 0.00 | 99 | 4097.3 |
| 20260902043641 | 66 | 120 | 1.0 | 1.0 | 0.00 | 0.00 | 0.00 | 99 | 4097.0 |
| 20260902043136 | 66 | 126 | 0.0 | 0.0 | 0.00 | 0.00 | 0.00 | 99 | 4097.7 |
| 20260902042635 | 66 | 125 | 0.0 | 1.0 | 0.00 | 0.00 | 0.00 | 99 | 4097.3 |
| 20260902042131 | 66 | 123 | 2.0 | 2.0 | 0.00 | 0.00 | 0.00 | 99 | 4097.3 |
| 20260902041631 | 66 | 127 | 1.0 | 1.0 | 0.00 | 0.00 | 0.00 | 99 | 4097.7 |
| 20260902041125 | 66 | 125 | 1.0 | 1.0 | 0.00 | 0.00 | 0.00 | 99 | 4097.7 |
| 20260902040625 | 66 | 126 | 1.0 | 1.0 | 0.00 | 0.00 | 0.00 | 99 | 4097.7 |
| 20260902040120 | 66 | 131 | 0.0 | 1.0 | 0.00 | 0.00 | 0.00 | 99 | 4097.7 |
| 20260902035619 | 66 | 134 | 0.0 | 1.0 | 0.00 | 0.00 | 0.00 | 99 | 4097.3 |
| 20260902035114 | 65 | 140 | 0.0 | 1.0 | 0.00 | 0.00 | 0.00 | 99 | 4097.7 |
| 20260902034613 | 65 | 143 | 0.0 | 0.0 | 0.00 | 0.00 | 0.00 | 99 | 4097.7 |
| 20260902034113 | 65 | 147 | 0.0 | 0.0 | 0.00 | 0.00 | 0.00 | 99 | 4097.7 |
| 20260902033612 | 65 | 148 | 0.0 | 0.0 | 0.00 | 0.00 | 0.00 | 99 | 4097.7 |
| 20260902033107 | 65 | 147 | 0.0 | 0.0 | 0.00 | 0.00 | 0.00 | 99 | 4097.7 |
| 20260902032606 | 66 | 147 | 0.0 | 0.0 | 0.00 | 0.00 | 0.00 | 99 | 4097.7 |
| 20260902032100 | 66 | 148 | 0.0 | 0.0 | 0.00 | 0.00 | 0.00 | 99 | 4097.7 |
| 20260902031555 | 66 | 148 | 0.0 | 0.0 | 0.00 | 0.00 | 0.00 | 99 | 4097.7 |
| 20260902031051 | 66 | 148 | 0.0 | 0.0 | 0.00 | 0.00 | 0.00 | 99 | 4098.0 |
| 20260902030546 | 66 | 147 | 0.0 | 0.0 | 0.00 | 0.00 | 0.00 | 99 | 4097.7 |
| 20260902030045 | 66 | 156 | 0.0 | 0.0 | 0.00 | 0.00 | 0.00 | 99 | 4098.0 |
| 20260902025540 | 66 | 144 | 0.0 | 1.0 | 0.00 | 0.00 | 0.00 | 99 | 4097.7 |
| 20260902025035 | 66 | 144 | 0.0 | 0.0 | 0.00 | 0.00 | 0.00 | 99 | 4097.7 |
| 20260902024531 | 66 | 144 | 0.0 | 0.0 | 0.00 | 0.00 | 0.00 | 99 | 4097.7 |
| 20260902024031 | 66 | 144 | 0.0 | 0.0 | 0.00 | 0.00 | 0.00 | 99 | 4098.0 |
| 20260902023527 | 66 | 144 | 0.0 | 0.0 | 0.00 | 0.00 | 0.00 | 99 | 4098.0 |
| 20260902023022 | 67 | 144 | 0.0 | 0.0 | 0.00 | 0.00 | 0.00 | 99 | 4097.7 |
| 20260902022516 | 67 | 144 | 0.0 | 0.0 | 0.00 | 0.00 | 0.00 | 99 | 4097.7 |
| 20260902022012 | 67 | 146 | 0.0 | 1.0 | 0.00 | 0.00 | 0.00 | 99 | 4097.7 |
| 20260902021507 | 67 | 143 | 0.0 | 0.0 | 0.00 | 0.00 | 0.00 | 99 | 4097.7 |
| 20260902021002 | 67 | 149 | 0.0 | 0.0 | 0.00 | 0.00 | 0.00 | 99 | 4097.7 |
| 20260902020458 | 67 | 148 | 0.0 | 0.0 | 0.00 | 0.00 | 0.00 | 99 | 4097.7 |
| 20260902015953 | 67 | 153 | 0.0 | 0.0 | 0.00 | 0.00 | 0.00 | 99 | 4098.0 |
| 20260902015449 | 66 | 154 | 0.0 | 0.0 | 0.00 | 0.00 | 0.00 | 99 | 4098.0 |
| 20260902014944 | 67 | 154 | 0.0 | 0.0 | 0.00 | 0.00 | 0.00 | 99 | 4098.0 |
| 20260902014441 | 67 | 154 | 0.0 | 0.0 | 0.00 | 0.00 | 0.00 | 99 | 4098.3 |
| 20260902013940 | 67 | 154 | 0.0 | 0.0 | 0.00 | 0.00 | 0.00 | 99 | 4098.0 |
| 20260902013436 | 67 | 154 | 0.0 | 0.0 | 0.00 | 0.00 | 0.00 | 99 | 4098.0 |
| 20260902012930 | 67 | 153 | 0.0 | 1.0 | 0.00 | 0.00 | 0.00 | 99 | 4098.0 |
| 20260902012426 | 67 | 158 | 0.0 | 0.0 | 0.00 | 0.00 | 0.00 | 99 | 4098.0 |
| 20260902011922 | 67 | 159 | 0.0 | 0.0 | 0.00 | 0.00 | 0.00 | 99 | 4098.0 |
| 20260902011416 | 68 | 159 | 0.0 | 0.0 | 0.00 | 0.00 | 0.00 | 99 | 4098.0 |
| 20260902010910 | 68 | 164 | 0.0 | 0.0 | 0.00 | 0.00 | 0.00 | 99 | 4098.3 |
| 20260902010406 | 68 | 165 | 0.0 | 0.0 | 0.00 | 0.00 | 0.00 | 99 | 4098.0 |
| 20260902005904 | 68 | 159 | 0.0 | 0.0 | 0.00 | 0.00 | 0.00 | 99 | 4098.0 |
| 20260902005359 | 68 | 151 | 0.0 | 0.0 | 0.00 | 0.00 | 0.00 | 99 | 4097.7 |
| 20260902004855 | 68 | 151 | 0.0 | 0.0 | 0.00 | 0.00 | 0.00 | 99 | 4098.3 |
| 20260902004354 | 68 | 153 | 0.0 | 0.0 | 0.00 | 0.00 | 0.00 | 99 | 4098.0 |
| 20260902003849 | 69 | 159 | 0.0 | 0.0 | 0.00 | 0.00 | 0.00 | 99 | 4098.0 |
| 20260902003344 | 69 | 159 | 0.0 | 0.0 | 0.00 | 0.00 | 0.00 | 99 | 4097.7 |
| 20260902002840 | 69 | 159 | 0.0 | 1.0 | 0.00 | 0.00 | 0.00 | 99 | 4098.0 |
| 20260902002339 | 69 | 158 | 0.0 | 0.0 | 0.00 | 0.00 | 0.00 | 99 | 4098.0 |
| 20260902001834 | 69 | 158 | 0.0 | 0.0 | 0.00 | 0.00 | 0.00 | 99 | 4097.7 |
| 20260902001330 | 69 | 158 | 0.0 | 0.0 | 0.00 | 0.00 | 0.00 | 99 | 4098.0 |
| 20260902000825 | 70 | 158 | 0.0 | 0.0 | 0.00 | 0.00 | 0.00 | 99 | 4098.0 |
| 20260902000324 | 70 | 140 | 0.0 | 1.0 | 0.00 | 0.00 | 0.00 | 99 | 4098.0 |
| 20260901235820 | 70 | 147 | 0.0 | 1.0 | 0.00 | 0.00 | 0.00 | 99 | 4098.0 |
| 20260901235319 | 70 | 154 | 0.0 | 0.0 | 0.00 | 0.00 | 0.00 | 99 | 4098.0 |
| 20260901234814 | 71 | 154 | 0.0 | 0.0 | 0.00 | 0.00 | 0.00 | 99 | 4098.0 |
| 20260901234308 | 71 | 146 | 0.0 | 0.0 | 0.00 | 0.00 | 0.00 | 99 | 4097.7 |
| 20260901233804 | 71 | 146 | 0.0 | 0.0 | 0.00 | 0.00 | 0.00 | 99 | 4098.0 |
| 20260901233300 | 71 | 138 | 0.0 | 0.0 | 0.00 | 0.00 | 0.00 | 99 | 4097.7 |
| 20260901232755 | 72 | 137 | 1.0 | 1.0 | 0.00 | 0.00 | 0.00 | 99 | 4098.0 |
| 20260901232250 | 72 | 133 | 0.0 | 0.0 | 0.00 | 0.00 | 0.00 | 99 | 4098.0 |
| 20260901231746 | 73 | 136 | 0.0 | 0.0 | 0.00 | 0.00 | 0.00 | 99 | 4097.7 |
| 20260901231242 | 73 | 136 | 0.0 | 0.0 | 0.00 | 0.00 | 0.00 | 99 | 4097.7 |
| 20260901230738 | 73 | 136 | 0.0 | 0.0 | 0.00 | 0.00 | 0.00 | 98 | 4097.7 |
| 20260901230237 | 74 | 136 | 0.0 | 0.0 | 0.00 | 0.00 | 0.00 | 97 | 4097.7 |
| 20260901225733 | 75 | 136 | 0.0 | 0.0 | 0.00 | 0.00 | 0.00 | 96 | 4097.7 |
| 20260901225227 | 75 | 137 | 0.0 | 0.0 | 0.00 | 0.00 | 0.00 | 95 | 4097.7 |
| 20260901224723 | 76 | 139 | 0.0 | 0.0 | 0.00 | 0.00 | 0.00 | 95 | 4098.0 |
| 20260901224219 | 76 | 140 | 0.0 | 0.0 | 0.00 | 0.00 | 0.00 | 95 | 4098.0 |
| 20260901223715 | 77 | 150 | 1.0 | 2.0 | 0.00 | 0.00 | 0.00 | 94 | 4098.3 |
| 20260901223209 | 76 | 152 | 0.0 | 0.0 | 0.00 | 0.00 | 0.00 | 95 | 4098.3 |